Location: ?????
(33.6267°N, 35.4675°E)
Time: 00:24:12
(UTC+00:00)

ATLAS 5 CENTAUR R/B - Pass Details

Date: 12 November 2019
Orbit: 266 x 12999 km, 20.1° (Epoch: 09 December)

Event Time Altitude Azimuth Distance (km) Brightness Sun altitude
Rises 17:23:23 0° 243° (WSW) 3,319 5.6 -34.7°
Reaches altitude 10° 17:25:07 10° 235° (SW) 2,820 5.0 -35.0°
Maximum altitude 17:31:48 42° 164° (SSE) 2,756 4.0 -36.4°
Enters shadow 17:32:53 41° 153° (SSE) 3,008 4.2 -36.6°
